Regional Weather Roundup
Issued by NWS Northern Indiana

Home | Current Version | Previous Version | Text Only | Print | Product List | Glossary On
Versions: 1 2 3 4 5 6 7 8 9 10 11 12 13 14 15 16 17 18 19 20 21 22 23 24 25 26 27 28 29 30 31 32 33 34 35 36 37 38 39 40 41 42 43 44 45 46 47 48 49 50
438
ASUS43 KIWX 290310
RWRIWX

KIWX WEATHER ROUNDUP
NATIONAL WEATHER SERVICE NORTHERN INDIANA
1100 PM EDT TUE MAR 28 2017

NOTE: "FAIR" INDICATES FEW OR NO CLOUDS BELOW 12,000 FEET WITH NO
SIGNIFICANT WEATHER AND/OR OBSTRUCTIONS TO VISIBILITY.

* THESE STATIONS ARE NOT UNDER NWS QUALITY CONTROL. THEY ALSO MAY NOT
  REPORT WEATHER SUCH AS PRECIPITATION OR FOG.

INZ001>027-290400-
NORTHERN INDIANA

CITY           SKY/WX    TMP DP  RH WIND       PRES   REMARKS
GARY*          CLOUDY    41  39  93 CALM      30.23R
VALPARAISO     CLOUDY    42  39  89 N5        30.21R
MICHIGAN CITY* CLOUDY    37  37 100 CALM      30.22R
LAPORTE*       CLOUDY    42  39  90 CALM      30.21R
KNOX*          CLOUDY    41  30  65 N6        30.20R
SOUTH BEND     CLOUDY    42  39  89 N5        30.21R
GOSHEN         PTCLDY    43  37  79 NE7       30.20R
MONTICELLO*    CLOUDY    44  41  91 N6        30.18S
LOGANSPORT*    CLOUDY    46  41  81 NE5       30.18S
ROCHESTER*     CLOUDY    48  43  81 E7        30.19R
WARSAW*        CLOUDY    45  37  76 NE7       30.19S
ANGOLA*        CLEAR     39  37  93 NE5       30.19S
FORT WAYNE     CLOUDY    47  40  76 NE12      30.18R
HUNTINGTON*    CLOUDY    47  43  87 NE5       30.17S
PERU/GRISSOM   CLOUDY    47  45  91 NE8       30.16R
MARION*        CLOUDY    47  45  91 NE6       30.17F

$$
INZ028>050-290400-
CENTRAL INDIANA

CITY           SKY/WX    TMP DP  RH WIND       PRES   REMARKS
LAFAYETTE      CLOUDY    45  42  89 N9        30.17S
KOKOMO*        CLOUDY    48  44  86 NE7       30.18R
MUNCIE*        CLOUDY    49  46  90 E7        30.16R
INDIANAPOLIS   CLOUDY    50  44  80 NE9       30.14S

$$
MIZ043>046-050>051-056>058-064>065-071>073-077>080-290400-
SOUTHWEST LOWER MICHIGAN

CITY           SKY/WX    TMP DP  RH WIND       PRES   REMARKS
BATTLE CREEK   CLEAR     37  34  89 CALM      30.21R
BENTON HARBOR  CLEAR     36  33  89 VRB3      30.22R
COLDWATER*     CLEAR     37  36  99 CALM      30.20S
HILLSDALE*     CLEAR     34  34 100 CALM      30.19S FOG
HOLLAND        FOG       32  31  96 W3        30.23R VSB 1/2
GRAND RAPIDS   CLEAR     40  37  89 CALM      30.21R
KALAMAZOO      CLEAR     37  34  89 CALM      30.21R
STURGIS*       CLEAR     37  36  95 NE5       30.19S
THREE RIVERS*  FAIR      37  36  94 CALM      30.21S

$$
OHZ001>008-015>018-024>025-290400-
NORTHWEST OHIO

CITY           SKY/WX    TMP DP  RH WIND       PRES   REMARKS
WAUSEON*       MOCLDY    41  39  93 N7        30.20R
DEFIANCE       CLOUDY    45  39  79 NE5       30.19S
FINDLAY        CLOUDY    47  37  68 N6        30.17R
TOLEDO EXPRESS CLEAR     42  38  85 N6        30.19R
TOLEDO METCALF CLEAR     42  37  82 NE7       30.21R
LIMA           CLOUDY    45  43  93 NE6       30.17S

$$
AND FOR LAKE MICHIGAN COASTAL AND OPEN LAKE BUOY OBSERVATIONS

STATION/POSITION TEMP    WIND        PRES    VSBY  WAVE
                 AIR SEA DIR/SP/G                  HT/PER
                 (F)     (DEG/KT/KT) (MB)    (MI)  (FT/S)
CALUMET HARBOR    38     360/  6/  8 1022.9R
MICHIGAN CITY     38      30/  9/ 10   N/A
BURNS HARBOR      39      50/  7/  8 1023.4R
SAINT JOSEPH      35      40/  5/  8 1023.4

$$
&&




USA.gov is the U.S. government's official web portal to all federal, state and local government web resources and services.